Temp
25 26 26 28 28 27 27 27 28 29 29 27 29 30 31 32 32 32 32 32 33 32 33 31 28 27 26 26 25 23 21 20 18 17 16 16 16 16 17 16 17 17 17 17
24 25 27 27 25 25 26 26 28 29 28 27 29 30 31 32 32 33 33 33 33 32 31 29 27 25 24 24 24 23 22 20 18 17 17 17 16 17 17 16 17 17 17 17
25 26 24 24 25 24 26 26 27 27 28 29 27 30 31 32 31 32 32 32 30 29 29 29 27 25 24 23 23 23 22 20 17 17 17 17 16 17 16 18 18 18 17 16
25 26 23 24 25 25 26 27 26 27 27 28 28 28 31 31 31 32 32 30 30 29 27 26 26 24 23 22 21 22 22 18 17 17 17 17 18 20 20 19 20 19 16 16
26 24 24 24 26 25 27 26 26 27 27 26 28 27 31 30 30 33 32 31 28 27 26 26 24 24 23 21 17 18 19 16 16 17 18 19 18 20 19 19 18 18 16 15
25 25 25 26 26 26 26 26 26 26 27 25 28 28 30 31 31 31 30 28 27 27 26 25 23 20 20 17 16 16 16 16 16 17 18 18 19 19 19 18 18 17 17 16
26 25 26 26 26 25 25 26 26 26 25 27 26 26 28 30 30 30 30 29 27 26 25 23 22 20 18 16 15 15 16 16 17 17 17 18 18 19 19 18 18 18 17 16
27 26 26 26 27 27 26 27 26 25 26 27 25 26 29 29 29 29 27 27 26 26 25 23 22 21 19 17 16 16 16 16 17 17 18 18 19 19 19 18 18 17 17 16
26 26 26 26 26 27 26 25 27 25 26 24 27 28 30 29 28 27 27 26 26 26 25 24 23 21 19 18 17 17 18 18 18 18 18 18 17 17 17 16 15 16 15 15
26 25 26 26 26 25 25 27 25 25 23 24 27 28 27 27 28 28 27 27 27 26 25 24 23 22 21 20 20 19 19 20 19 18 18 18 17 16 15 15 14 14 14 13
26 25 25 24 25 27 25 25 25 26 26 24 24 26 27 28 27 27 28 26 26 26 25 24 23 22 21 20 20 19 18 20 19 18 17 16 15 15 14 14 14 13 13 12
25 24 24 26 26 24 25 26 27 25 24 25 24 23 28 27 28 27 27 26 26 25 25 25 24 22 21 20 20 19 18 18 18 16 16 15 14 13 13 13 13 13 12 12
22 22 23 24 25 23 23 25 25 26 25 23 23 23 25 25 25 26 26 26 25 24 24 24 23 23 22 20 20 19 18 17 16 15 14 14 13 13 13 13 13 12 12 12
20 24 24 23 24 26 25 24 25 24 23 23 24 24 26 26 25 26 25 25 26 25 24 24 24 23 21 21 20 19 18 16 15 15 14 14 13 13 13 12 12 12 11 11
21 22 23 24 24 24 24 24 25 24 24 23 24 25 26 27 27 27 27 26 24 24 24 24 23 23 22 20 19 18 17 15 14 14 14 13 12 12 11 11 11 11 10 10
21 20 20 20 22 22 22 23 23 23 24 24 25 25 25 26 27 26 26 26 25 24 24 23 22 22 21 20 18 16 15 14 13 13 13 13 12 12 11 11 10 10 10 10
18 17 17 17 20 20 19 21 22 23 24 24 23 25 26 25 26 26 26 25 24 24 23 22 22 21 19 18 17 16 14 13 13 13 13 12 12 12 11 11 10 10 10 9
17 16 15 15 15 15 20 24 23 22 23 23 24 24 24 25 25 26 25 25 24 23 21 20 21 20 17 16 15 14 14 13 13 13 13 12 11 11 11 10 10 9 8 8
17 16 14 14 15 17 19 22 21 20 22 23 23 24 24 25 25 24 24 23 22 21 21 19 18 16 15 14 14 13 13 12 13 13 12 12 11 10 10 9 9 8 6 6
17 16 14 12 14 16 21 22 24 23 20 23 23 23 23 24 22 23 24 20 20 18 17 17 15 14 14 14 13 13 13 13 13 12 12 10 9 9 9 9 8 7 6 6
14 14 14 14 14 16 22 23 21 18 22 24 23 23 23 22 23 23 18 18 17 16 15 14 13 14 13 12 12 12 12 12 11 10 9 8 8 8 8 8 7 7 6 5
16 14 14 14 14 15 21 22 19 22 23 21 22 22 22 22 22 18 17 17 15 15 14 13 14 13 12 12 12 10 8 7 7 7 7 7 7 6 7 7 6 6 5 4
16 17 17 16 16 20 21 21 22 21 22 20 19 19 19 18 18 18 16 15 15 15 14 14 13 11 10 11 11 10 7 6 5 6 4 4 3 3 3 4 4 4 3 3
15 17 16 16 18 21 20 20 18 18 18 18 18 18 17 17 17 17 15 14 14 14 14 13 12 11 10 9 9 8 7 6 6 6 6 5 4 4 3 3 3 3 4 3
15 15 14 14 15 16 15 16 16 16 15 16 15 16 15 16 15 15 14 14 14 13 12 11 11 10 9 7 7 6 6 6 6 6 6 6 5 4 4 3 3 2 2 2
11 13 13 12 13 14 14 14 13 12 13 15 14 13 12 13 14 15 14 13 12 11 9 9 8 8 7 7 6 5 4 4 5 5 5 4 3 3 3 2 2 2 2 2
Height
775 778 777 765 764 767 770 772 769 759 754 768 758 751 743 732 734 736 733 731 730 732 732 736 741 746 750 753 757 762 767 771 774 777 781 788 791 795 797 800 802 805 809 810
781 778 762 764 771 777 775 775 768 758 758 767 754 750 738 730 727 724 723 722 722 725 731 736 739 744 747 749 752 756 760 764 767 771 779 783 787 791 794 798 800 803 806 806
773 769 772 772 772 778 772 772 767 770 756 752 759 746 732 726 724 723 721 721 725 729 730 731 736 740 742 745 747 750 754 759 762 769 774 780 785 788 792 795 797 798 800 803
771 762 775 774 773 768 772 759 765 767 768 765 757 763 733 728 725 719 717 722 723 725 729 732 735 738 740 743 745 747 751 756 761 765 769 773 778 781 785 790 793 797 798 800
766 769 772 774 765 764 763 761 764 764 765 767 755 768 726 729 729 713 710 718 725 728 730 732 737 738 741 744 747 750 753 757 760 766 770 773 777 779 785 788 791 792 796 797
762 761 761 756 757 760 760 764 765 766 763 774 747 755 730 723 720 717 720 724 727 729 730 732 736 740 743 747 749 752 754 756 758 762 765 767 770 774 780 782 785 789 791 792
759 759 753 755 760 763 763 764 769 769 772 760 753 758 736 719 713 716 719 722 726 728 729 732 735 738 740 743 744 746 748 750 754 756 761 766 771 775 777 779 783 787 787 790
756 762 753 747 749 752 757 755 765 778 763 752 758 754 728 713 713 712 719 722 724 726 728 731 732 734 737 741 742 743 745 747 749 755 759 762 765 770 773 776 779 782 782 783
757 756 744 746 746 746 754 764 746 761 755 766 744 723 707 709 714 717 717 720 721 722 724 727 730 732 736 740 742 743 745 748 751 753 755 760 764 767 770 772 774 777 778 780
747 760 746 746 746 748 751 739 762 759 775 764 731 724 728 718 716 711 714 714 716 718 721 723 725 730 733 735 738 742 743 745 750 755 758 760 763 767 768 770 771 774 776 777
742 752 753 755 749 738 752 754 751 746 745 754 749 731 707 710 710 712 708 714 713 713 715 717 721 723 727 732 734 737 740 741 744 749 754 758 759 761 764 768 771 774 774 775
744 748 752 743 733 740 738 735 736 751 748 733 736 732 703 706 705 708 708 709 707 709 710 712 714 718 722 724 727 732 736 739 743 746 746 749 753 757 759 763 765 767 768 767
749 752 757 750 740 742 742 735 736 732 732 735 740 726 706 708 708 701 701 701 704 707 706 706 709 711 713 717 719 721 725 730 733 737 740 744 747 751 754 757 760 761 764 764
742 737 740 744 734 722 731 733 728 732 737 729 705 705 707 706 704 698 701 698 695 700 700 701 702 704 707 709 713 716 720 724 727 731 736 741 743 745 751 755 756 753 755 755
741 740 731 724 724 724 726 720 720 722 720 725 686 687 699 691 686 687 686 690 695 696 693 694 694 696 698 701 704 710 717 719 722 728 733 737 741 744 745 747 746 752 751 752
733 738 743 735 732 730 724 715 718 712 704 696 690 653 694 678 678 680 679 681 682 683 683 686 686 688 690 692 695 702 708 711 717 724 730 732 736 737 740 738 745 746 746 745
741 749 754 737 733 734 716 705 703 694 694 693 689 650 681 676 671 670 671 673 674 675 677 679 680 681 682 686 691 696 703 706 713 719 722 725 730 733 733 738 741 742 741 740
735 744 750 746 748 745 676 672 680 685 676 679 668 663 665 663 662 662 664 664 666 670 674 676 676 676 679 684 689 693 699 703 711 716 720 723 724 726 731 734 735 736 735 733
722 734 744 742 740 707 666 677 680 683 659 666 664 658 655 653 654 658 657 661 665 669 670 673 677 678 679 681 687 691 695 700 707 713 716 721 722 724 728 730 733 732 731 730
711 717 731 737 727 711 629 659 651 662 650 654 650 650 653 653 660 651 648 660 663 665 669 672 674 676 677 680 686 690 692 697 702 708 713 717 718 720 724 726 728 728 728 727
706 709 709 708 711 684 644 655 663 684 648 637 645 645 646 649 644 641 655 660 665 664 668 671 673 676 680 684 688 691 695 698 701 706 710 713 716 717 719 721 724 725 722 723
681 695 691 692 694 680 642 647 662 637 635 643 641 640 642 644 644 655 657 661 664 664 667 671 672 677 681 685 691 696 699 700 703 707 710 712 715 714 713 716 719 718 719 718
663 649 658 663 650 632 628 632 632 637 635 641 644 647 648 649 651 655 660 665 667 666 669 673 676 680 684 686 690 695 701 704 706 707 708 710 712 713 714 713 713 713 713 715
647 638 645 647 628 625 628 633 640 641 641 643 644 646 649 649 651 655 660 663 667 669 671 673 677 682 686 688 690 695 698 701 705 708 710 711 709 711 713 709 710 711 710 710
643 646 642 638 637 637 637 635 640 641 646 646 648 648 650 653 653 654 659 659 664 669 673 674 676 683 689 692 695 698 701 702 703 705 705 706 709 708 709 708 705 706 708 709
658 649 649 643 641 636 636 637 644 648 648 644 646 648 650 649 651 652 655 658 664 668 671 676 680 682 689 690 694 697 701 701 702 703 703 705 706 708 705 704 702 704 705 706
Wind_Speed
5 9 11 13 9 8 9 9 11 8 4 7 11 12 13 12 11 14 14 14 14 14 12 11 13 17 19 21 23 24 25 26 26 27 24 18 15 17 16 15 12 11 10 9
6 12 10 7 7 9 9 12 13 10 3 6 11 14 14 16 16 16 13 13 12 10 9 12 13 13 16 19 22 24 26 27 28 27 22 16 17 17 14 12 10 11 11 10
11 3 3 8 11 11 13 13 10 10 8 12 10 18 13 10 9 12 13 12 7 7 8 8 11 14 14 16 20 24 26 28 27 25 23 16 15 11 12 12 13 14 12 10
8 6 9 9 8 11 12 10 13 10 7 7 2 6 5 8 9 11 11 7 5 3 3 4 7 11 13 13 13 19 23 23 24 26 23 23 21 17 14 16 13 11 9 8
4 6 9 11 11 10 3 3 6 7 9 7 13 6 4 8 13 9 5 6 3 2 4 4 5 7 7 6 8 11 14 19 22 22 21 22 17 15 14 13 10 8 7 7
8 1 5 5 5 11 4 6 6 6 8 10 16 11 7 6 5 2 5 4 3 4 5 5 3 3 4 4 4 8 14 19 24 21 21 23 21 17 17 13 10 8 7 7
8 14 5 8 8 8 10 7 5 6 6 8 3 6 13 9 11 7 4 2 1 4 6 5 4 5 6 9 11 14 19 19 21 22 22 19 16 18 15 11 9 8 7 8
6 6 14 13 12 5 15 10 7 7 8 10 8 8 7 4 5 5 8 5 4 5 5 6 7 10 9 11 14 16 19 20 22 21 19 19 19 15 12 11 9 8 10 13
5 5 5 6 5 10 7 9 5 13 17 12 12 17 13 15 10 8 7 6 5 4 5 8 9 11 10 10 14 16 19 19 19 19 20 18 16 13 12 10 8 11 13 13
2 6 6 7 6 6 9 4 4 6 7 15 11 11 9 6 10 11 10 9 5 6 7 9 11 13 14 15 15 15 17 18 18 17 16 15 13 11 10 9 11 12 12 11
7 7 5 5 11 15 7 10 9 9 10 14 16 9 6 4 3 7 8 5 6 6 7 8 10 16 17 17 18 19 19 19 19 18 14 12 12 10 10 9 9 8 8 11
11 5 11 20 5 5 10 16 18 12 15 13 15 17 16 16 14 10 11 7 6 6 6 8 11 15 18 21 21 22 21 20 17 15 14 12 12 12 11 9 6 5 9 11
9 8 11 15 13 8 10 14 17 19 18 25 18 8 4 6 10 13 12 9 6 6 9 10 10 13 18 23 25 25 24 22 20 17 14 14 13 11 9 6 4 6 8 11
7 15 15 16 19 14 14 13 18 20 17 20 25 29 22 16 18 19 15 17 19 14 14 13 12 14 19 23 26 25 23 20 17 15 15 14 13 11 8 5 6 6 9 13
6 20 22 24 24 21 22 28 27 28 24 26 33 34 21 21 22 19 20 16 17 18 18 17 16 15 16 20 23 23 22 19 18 17 17 14 12 10 7 5 4 8 11 16
9 15 15 27 24 24 33 33 28 32 33 36 36 45 18 26 24 25 25 24 22 20 18 16 15 14 15 19 23 25 24 22 21 20 17 15 13 9 7 1 7 11 15 19
10 5 9 25 20 19 27 23 33 36 32 34 33 41 18 25 27 23 22 20 19 17 15 15 14 13 13 16 20 23 24 24 23 21 19 16 13 9 3 6 10 14 17 18
12 14 11 6 3 14 16 10 11 17 25 27 33 34 33 32 30 25 21 22 19 16 14 15 14 11 11 12 17 22 25 23 21 17 14 12 11 7 7 8 11 13 14 14
21 16 5 6 10 22 35 21 14 14 31 25 27 28 29 28 25 21 20 18 16 14 12 10 11 9 11 17 22 24 22 20 17 14 12 11 9 8 8 8 10 11 11 11
26 22 13 5 7 16 30 4 8 19 28 17 25 24 26 23 15 14 11 4 8 6 7 8 9 10 15 20 22 21 19 17 15 13 11 10 8 6 7 9 9 8 9 11
16 16 22 19 11 14 23 7 10 14 6 5 10 15 18 16 16 8 4 4 3 4 5 6 9 12 17 19 18 15 14 13 11 11 10 8 5 5 8 8 9 10 9 9
16 10 14 16 15 23 10 17 24 15 12 8 9 12 15 15 11 5 4 5 5 6 8 12 15 16 16 14 13 11 10 10 8 7 6 4 5 6 6 8 10 9 9 9
12 14 12 14 12 16 8 17 18 20 16 8 7 4 6 6 7 5 5 5 6 9 12 15 15 14 11 10 10 11 9 7 6 5 4 4 3 4 6 7 8 7 7 9
9 8 13 8 18 21 11 12 5 6 10 7 6 4 2 6 7 8 5 7 9 11 12 14 14 12 11 10 9 10 9 6 4 3 3 4 5 7 9 7 8 9 9 6
5 4 10 11 14 7 7 9 12 9 7 6 6 6 8 10 11 10 8 12 12 12 12 13 12 11 10 9 8 6 5 3 2 3 4 6 7 7 9 11 14 15 14 10
3 3 4 2 4 4 3 4 3 6 9 10 10 9 10 12 14 13 11 11 12 11 13 12 12 12 10 8 7 5 3 1 2 4 6 6 7 8 8 11 13 14 13 11
Wind_Direction
205 239 224 226 229 295 276 266 269 270 272 279 262 265 265 265 240 248 246 241 234 235 237 222 217 221 220 218 212 207 200 196 187 182 178 180 185 194 203 215 216 215 210 223
220 243 258 244 244 242 246 262 265 273 291 246 280 276 268 265 262 262 269 261 260 255 240 224 219 219 221 223 219 211 206 198 189 179 182 183 185 201 202 205 204 201 213 217
248 46 68 202 219 226 230 244 262 272 303 252 278 267 235 239 241 256 260 259 264 253 253 233 223 228 232 230 219 213 209 201 187 184 179 171 173 174 189 196 195 206 204 214
252 233 236 241 245 222 236 226 247 264 267 277 6 287 242 242 260 255 245 228 249 242 241 262 245 237 232 233 223 215 209 191 189 180 177 180 186 185 192 195 196 194 205 218
110 194 215 236 246 197 219 181 224 253 264 298 261 254 224 188 272 268 230 201 155 344 317 292 262 274 263 237 219 209 196 189 185 177 185 184 191 178 181 178 180 196 216 224
260 210 234 228 200 204 133 190 213 236 257 251 247 227 272 246 269 124 109 118 23 331 287 269 267 275 262 251 206 181 184 181 181 182 187 188 184 177 177 179 192 208 220 230
200 221 209 209 181 190 225 237 257 225 206 261 104 230 258 271 262 265 253 219 337 260 268 264 248 235 219 207 196 188 182 178 178 181 188 188 183 185 185 188 204 213 223 242
231 206 196 192 225 213 207 238 260 279 278 289 167 249 255 235 314 270 238 261 252 250 242 244 224 217 215 207 202 189 186 182 184 184 184 181 185 188 191 193 205 223 235 245
220 243 176 196 209 216 177 216 272 273 267 268 253 263 265 251 249 252 229 219 262 233 221 230 228 222 219 214 208 197 194 191 190 185 182 185 186 186 192 198 209 231 240 249
206 266 211 161 197 218 262 123 216 205 267 270 254 265 258 255 242 243 235 241 223 221 218 219 217 218 220 216 212 208 201 192 190 191 193 192 191 195 200 212 227 238 251 256
231 234 187 194 215 232 194 232 243 286 268 271 282 269 29 247 253 226 243 214 224 247 243 229 229 222 219 218 214 207 204 198 195 196 196 195 196 201 213 225 234 243 264 271
211 249 242 242 223 298 282 263 244 248 265 238 263 267 258 254 268 253 240 219 225 229 230 239 234 223 221 219 214 211 209 207 205 201 197 190 191 195 198 210 225 259 269 284
180 216 247 244 230 220 242 240 250 261 265 261 266 251 130 201 223 231 226 238 248 246 257 248 232 230 228 225 217 212 211 209 204 199 193 193 191 189 189 192 224 254 295 299
190 244 238 248 255 264 246 226 245 253 256 270 253 268 255 246 238 247 237 248 278 277 268 258 253 248 240 233 225 219 213 207 195 193 193 186 176 170 179 193 231 301 305 307
218 249 254 254 261 271 271 265 260 255 255 256 272 270 270 263 261 265 268 266 271 274 272 276 273 263 247 233 227 221 214 198 186 183 178 170 165 167 172 211 340 293 297 294
210 258 278 271 277 277 268 259 259 261 258 263 270 269 251 265 278 271 269 272 274 266 267 267 260 251 250 237 218 211 199 183 172 173 170 165 167 173 193 71 271 286 290 293
225 232 243 257 256 275 268 254 248 251 252 250 256 265 286 275 271 271 278 276 270 271 267 264 260 253 242 231 211 200 187 167 170 172 172 172 177 184 187 249 273 288 293 297
227 229 231 262 132 226 245 246 225 250 249 245 253 261 265 266 273 280 286 278 277 273 270 263 267 247 227 211 192 182 171 165 170 175 177 179 181 180 221 251 273 288 292 292
223 227 230 223 215 270 271 259 246 236 257 244 254 258 262 267 273 269 264 271 273 273 279 277 274 234 189 181 177 168 164 164 171 177 183 190 192 206 236 267 283 284 287 287
219 221 217 188 223 242 264 200 258 229 263 236 247 249 256 263 260 256 262 226 241 235 241 238 220 188 180 173 168 162 164 166 177 184 188 190 190 210 249 263 269 276 283 291
206 211 215 220 232 258 260 199 137 201 244 169 240 243 249 244 241 266 96 177 225 209 198 180 173 174 166 161 162 160 161 172 167 169 170 178 202 236 245 243 260 278 283 286
189 189 215 224 223 244 223 228 212 235 276 288 250 249 250 252 247 261 230 228 198 176 156 161 154 151 151 153 158 150 151 147 141 152 171 197 227 225 227 249 264 276 275 279
221 210 206 202 225 243 254 236 234 241 259 257 241 233 241 242 235 246 240 220 197 165 159 162 151 142 141 149 160 148 143 146 145 147 165 189 215 264 257 250 255 258 254 265
227 232 234 220 227 247 255 239 243 221 236 212 178 185 254 271 275 273 245 202 188 175 167 163 157 149 143 141 137 146 152 156 169 200 245 268 270 269 263 255 250 244 249 242
237 194 231 251 261 264 262 241 240 238 200 210 226 243 246 260 263 254 231 204 189 175 166 163 159 152 146 141 136 136 144 163 220 268 285 292 281 261 266 263 264 244 242 241
262 267 231 274 321 246 314 9 137 215 235 243 250 244 227 228 252 245 220 194 180 166 154 151 148 148 148 148 149 147 137 149 283 290 288 278 279 282 277 279 270 233 236 238